Погода Купино

Погода Купино : погода сейчас, прогноз погоды и архив. Всё, что Вы хотите узнать о погоде Купино!

Хотите узнать прогноз погоды Купино? Тогда Вам сюда: Погода Купино

Поиск расширенной информации на нашем сайте:

Полезная информация: Сауны и бани воронежа цены.

Другие новости

Новости СМИ2

Главная страница сайта

Новости сайта

02.10.2013

Напоминаем, что на нашем новом сайте вы можете получить высокодетализированные прогнозы погоды по пунктам России, СНГ и мира (включающие важные для авиации метеовеличины, такие как направление и скорость ветра, видимость, явления погоды, количество и форма облачности, нижняя и верхняя граница облачности), а также ознакомиться с разнообразными материалами по авиационной метеорологии и подборкой полезных ссылок на эту тему.

Сайт Метеоцентр.Азия посвящён разработке технологий оптимизации авиаметеорологического обслуживания, включая проектирование и перспективное создание нескольких автоматизированных авиаметеорологических систем:
- система выпуска высокодетальных прогностических карт явлений погоды для нижнего воздушного пространства по России и ближнему зарубежью;
- система верификации прогнозов TAF (выпускаемых синоптиками официальных АМСГ РФ и ближнего зарубежья) и AUTOTAF (выпускаемых сайтом Метеоцентр.Азия) - выявление ошибок, онлайн-сопоставление с фактической погодой METAR, автоматическое внесение коррективов в прогнозы при резком отклонении фактической погоды от прогноза, подсчёт оправдываемости прогнозов по элементам и в целом;
- система обработки, анализа и отображения авиаметеорологической информации для применения провайдерами метеорологической информации.

Рекомендуем: Откачка ям - выгребная яма на 3 куба откачка www.don-p.ru.

Погода Купино - сегодня

Время (UTC), дата Ветер
(°,м/с) 
Видим.   Явления Облачность Т
(°С)
Тd
(°С)
f(%) Тe
(°С)
Pmin
(гПа)
dP
(гПа)
Po
(мм)
O2
(г/м3)
Тmin Tmax R s Состояние
почвы
09 24.02.17 140 (ЮВ) 20000 м    ясно 
-7.1 -11.7 70 -10  1022.2  -1.3  755  314           
12 24.02.17 170 (Ю) 20000 м    ясно 
-8.8 -12.8 73 -10  1022  -0.4  755  316    -7       
15 24.02.17 190 (Ю) 20000 м    ясно 
-13.9 -15.9 85 -14  1022.4  0.1  755  322           
18 24.02.17 170 (Ю) 20000 м    ясно 
-16 -17.6 87 -18  1021.8  -0.7  755  324           
21 24.02.17 150 (ЮВ) 20000 м    ясно 
-16.8 -18.8 84 -17  1021.7  -0.2  755  325           
00 25.02.17 130 (ЮВ) 20000 м    ясно 
-17 -18.9 85 -19  1021.2  -0.4  754  326  -18      24  неравномерный
сухой снег
100% 
03 25.02.17 150 (ЮВ) 20000 м    10/0 средняя, верхняя 
[Ac As|Ci sp]
-16.5 -18.6 84 -19  1021.5  0.3  755  325  -18.5         
06 25.02.17 150 (ЮВ) 20000 м    10/0 средняя, верхняя 
[Ac As|Ci fib]
-9.5 -12.2 81 -13  1020.2  -0.9  754  316           
09 25.02.17 140 (ЮВ) 20000 м    10/3 1000 м средняя, верхняя 
[Sc|As op|Ci sp]
-7.1 -10.7 75 -11  1019.7  -0.3  754  313           
12 25.02.17 180 (Ю) 20000 м    10/4 1000 м средняя 
[Sc|As op]
-8 -11.3 77 -12  1019.9  0.1  754  314    -6.4       
15 25.02.17 200 (Ю) 20000 м    10/0 верхняя 
[Ci fib]
-10.3 -12.4 85 -13  1020.7  0.7  754  317           
18 25.02.17 240 (ЮЗ) 10 км  слаб. снег  10/0 средняя 
[As op]
-10.3 -11.6 90 -13  1021.1  0.4  755  317           
21 25.02.17 230 (ЮЗ) 10 км  слаб. снег  10/0 средняя 
[As op]
-8.2 -9.4 91 -11  1022.4  1.4  756  315           
00 26.02.17 210 (ЮЗ) 10 км  слаб. ливневой снег  10/10 600 м кучево-дожд. 
[Cb calv]
-5.8 -6.7 93 -8  1023.1  0.8  756  312  -11    0.0  24  неравномерный
сухой снег
100% 
03 26.02.17 200 (Ю) 4000 м  дымка{ливн. осадки}  10/10 300 м 
[St]
-4.3 -5.1 94 -7  1023.9  0.9  757  310           
06 26.02.17 220 (ЮЗ) 20000 м  {ливн. осадки}  10/10 1000 м 
[Sc]
-1.9 -2.9 93 -5  1024.4  0.6  757  308           
12 26.02.17 200 (Ю) 7-10{12}  20000 м    10/10 1000 м 
[Sc]
-1 -3.2 85 -5  1023.6  -0.4  757  306    -1  0.0     
15 26.02.17 210 (ЮЗ) 7-10{12}  4000 м  слаб. ливневой снег  10/10 600 м кучево-дожд. 
[Cb calv]
-0.6 -1.4 94 -5  1022.8  -0.8  756  306           
18 26.02.17 220 (ЮЗ) 6{10}  20000 м  {ливн. осадки}  10/10 600 м кучево-дожд. 
[Cb calv]
+0.3 -0.4 95 -3  1022.8  756  304           
21 26.02.17 220 (ЮЗ) 6{11}  20000 м    10/10 300 м кучево-дожд. 
[Cb calv]
+0.5 -0.2 95 -3  1023.9  1.1  757  304           
00 27.02.17 220 (ЮЗ) 4{10}  10 км  слаб. ливневой дождь  10/10 300 м кучево-дожд. 
[Cb calv]
+0.5 -1 90 -2  1024.6  0.8  758  305  -1    23  неравномерный
мокрый или
старый снег
100% 
03 27.02.17 210 (ЮЗ) 20000 м  {ливн. осадки}  10/10 600 м 
[Sc]
+0.1 -2.1 85 -3  1024.8  0.1  758  305           
06 27.02.17 190 (Ю) 6-10{10}  20000 м  {ливн. осадки}  10/4 1000 м средняя, верхняя 
[Sc|As trans|Cs]
+0.1 -2.8 81 -3  1024.3  -0.6  757  305           
09 27.02.17 190 (Ю) 7-10{12}  20000 м    10/10 1000 м 
[Sc]
-0.1 -4.4 73 -4  1022.9  -1.4  756  305           
12 27.02.17 200 (Ю) 8-12{13}  20000 м    10/3 1000 м средняя, верхняя 
[Sc|Ac As|Ci sp]
-0.1 -5.2 68 -4  1022.3  -0.6  756  305    +0.8  0.0     
Время (UTC), дата Ветер
(°,м/с) 
Видим.   Явления Облачность Т
(°С)
Тd
(°С)
f(%) Тe
(°С)
Pmin
(гПа)
dP
(гПа)
Po
(мм)
O2
(г/м3)
Тmin Tmax R s Состояние
почвы

Для получения пояснительной информации подведите курсор к названию столбца.

ПОГОДА Купино - архив

Всё, что Вы хотите узнать о погоде Купино - удобно и подробно!

Выберите нужную дату (начиная с 1 января 2015* года) и нажмите кнопку "Найти".
Будут отображены архивные сводки погоды по пункту Купино, начиная с указанной даты.


Отображать данные в формате CSV (для использования в таблицах Excel)


Внимание! Наш архив погоды предназначен исключительно для личного некоммерческого использования в познавательных целях. Если Вам необходимы официальные справки о состоянии погоды (для производственных, юридических, коммерческих и т.п. целей), обращайтесь в органы Росгидромета.

*Примечание: данная дата относится к архиву по метеостанциям СССР (Россия, СНГ, Балтия).
Архив по метеостанциям Зарубежной Европы и Азии (кроме Китая) хранится 10 дней, по другим регионам земного шара (Китай, Африка, Америка, Австралия, Океания) - 1 день.

Купино - район местоположения метеостанции


Название, широта, долгота, высота метеостанции:
Купино 54.4°ш. 77.3°д. 115 м над ур. моря [Российская Федерация]

Дополнительная информация

В oтличие oт бoльшинства пoгoдных сайтoв мы публикуем пoдрoбную метеoинфoрмацию в детальнoм прoфессиoнальнoм фoрмате.

Характеристики температуры и влажнoсти вoздуха измеряются на высoте 2 м в тени вдали oт зданий и деревьев.
Скoрoсть ветра измеряется на высoте 10 м (на урoвне рoста челoвека скoрoсть ветра ниже в 1.5-2 раза). Если метеoстанция нахoдится в гoрoде или в лесу, тo скoрoсть ветра занижена на 2-4 м/с пo сравнению с oткрытым местoм. Скoрoсть ветра над акватoриями крупных рек и oзёр, а также на вершинах хoлмoв на 2-5 м/с выше, чем в oбычных услoвиях.
Атмoсфернoе давление в разных тoчках местнoсти мoжет значительнo oтличаться oт давления на метеoстанции, в зависимoсти oт услoвий рельефа (при пoдъёме на 10 м давление пoнижается примернo на 1 мм рт.ст.).